sat.trackr.live / text

‹ back to catalog

STRIX-7

NORAD 69177 · 2026-112A

PAYLOAD ACTIVE UNKNOWN

§ Identity

Operator
Country
JPN
Launch date
2026-05-22
Launch site
RLLB
Launch vehicle
Mass (kg)
RCS (m²)

External: N2YO · Heavens-Above · Gunter

§ Orbital elements

Epoch: 2026-09-19T21:34:39.224640Z

Period
95.87 min
Inclination
44.9077°
Eccentricity
0.0025346
Mean motion
15.01984898 rev/d
Perigee alt
543.2 km
Apogee alt
578.4 km
Semi-major
6,938.9 km
B*
1.8734e-4
RAAN
54.7849°
Arg perigee
220.2671°
Mean anomaly
139.6324°
Rev number
1,811

§ Raw data

STRIX-71 69177U 26112A   26262.89906510  .00002273  00000+0  18734-3 0  99972 69177  44.9077  54.7849 0025346 220.2671 139.6324 15.01984898 18112

JSON: /api/v1/satellites/69177 · /tle

For live sub-satellite position, see the globe view (requires WebGL).

§ Visibility from observer

Set your observer location to see the next 7 days of passes ≥ 10°. The values pass through the URL so the page stays shareable.

No JS? Fill the form by hand. The geolocation button needs JavaScript.